Погода в Милоградовом

Россия / Приморский край     43°18′23″N   134°36′12″E
темп.,
°C
ветер,
м/с
пор.,
м/с
влажн.,
%
обл.,
%
осадки,
мм/ч
давл.,
гПа
погр.,
м
30 июня, чт
чт3001:00+15с229495 0.0 100922
04:00+14ссв229416 0.0 100913
07:00+15св119462 0.1 101117
10:00+15в1295100 0.3 1012116
13:00+16всв238599 0.1 1013259
16:00+18в2372100 0.1 1012387
19:00+16вюв238299 0.0 1013152
22:00+15св228282 0.0 101559
1 июля, пт
пт101:00+14ссв228544 0.0 101419
04:00+13св118889 0.0 101514
07:00+15св2280100 0.0 101580
10:00+17вюв2273100 0.0 1016299
13:00+16в1279100 0.0 1015196
16:00+19юв2169100 0.0 1014408
19:00+17ююв117772 0.0 1014168
22:00+14зсз1188100 0.0 101412
2 июля, сб
сб201:00+14зюз228783 0.0 101312
04:00+15зюз2292100 0.0 101213
07:00+16зюз1190100 0.0 101216
10:00+20юз2279100 0.0 1011248
13:00+20ююз3482100 0.0 1010146
16:00+23ююз4672100 0.2 1008313
19:00+22юз1286100 0.1 100731
22:00+20зсз229050 0.1 100815
3 июля, вс
вс301:00+21сз2288100 0.0 100832
04:00+21зсз228588 0.0 100738
07:00+21сз2286100 0.0 100853
10:00+25зюз1368100 0.0 1007511
13:00+27ююз3463100 1.2 1006545
16:00+25ю236791 2.1 1006532
19:00+21с1196100 4.4 100626
22:00+19всв349949 7.5 100879
4 июля, пн
пн401:00+17в1210077 0.6 100842
04:00+16вюв1210099 0.7 1008105
07:00+16в22100100 0.0 100896
10:00+16вюв229798 0.2 1009166
13:00+21юв337634 0.0 1008378
16:00+19ююв228498 0.5 1008267
19:00+18ю1189100 0.3 1007124
22:00+15юз2299100 0.6 100851